{"data":{"norad_id":53142,"intl_designator":"2022-083L","name":"STARLINK-4101","alt_names":[],"object_type":"PAYLOAD","status":"ACTIVE","operator":null,"country":"US","launch_date":"2022-07-17","launch_site_code":"AFETR","launch_vehicle":null,"mission":null,"orbit_class":"UNKNOWN","rcs_meters":null,"size_class":null,"mass_kg":null,"dimensions":null,"purposes":["comms"],"wikipedia_slug":null,"has_3d_model":false,"image_url":null,"decayed_at":null,"tle_current":{"epoch":"2026-05-24T15:08:31.236576Z","epoch_age_seconds":106597,"freshness":"FRESH","line1":"1 53142U 22083L   26144.63091709  .00008618  00000+0  55966-3 0  9998","line2":"2 53142  53.2121 193.1793 0002262  84.3073 275.8177 15.08790468212696","mean_motion":15.08790468,"eccentricity":0.0002262,"inclination_deg":53.2121,"raan_deg":193.1793,"arg_perigee_deg":84.3073,"mean_anomaly_deg":275.8177,"bstar":0.00055966,"rev_number":21269,"period_min":95.440687792044,"perigee_km":538.32993382292,"apogee_km":541.4596514059,"semimajor_km":6918.0317926144,"source":"CELESTRAK","updated_at":"2026-05-25T13:38:17.317702Z"}}}